Zurück zum Katalog

STARLINK-35637

AktivKommunikationVLEO
NORAD 66130·PAYLOAD·🇺🇸 United States

Gestartet Oct 22, 2025 von Vandenberg Space Force Base

Loading…

Nächste Überflüge (nächste 24 Stunden)

TLE

AktuellSource: CelesTrak SupGP

Epoche: Sep 14, 2026, 23:04 UTC

1 66130C 25237S   26257.96159722  .00021119  00000+0  62386-3 0  2576
2 66130  53.1586 239.2589 0001406  92.7808 354.0811 15.34384738    18

Verfolge STARLINK-35637 in Echtzeit mit AllMySat

Download on the App Store